• In Hungary
  • List of Countries
  • For 7 days
  • Water Temperature
  • Satellite Maps
  • Weather Map
  • News
  • Weather Widgets
  • user-avatar
    Login

    Hourly Weather Pechernikovskie Vyselki

    Today, 24 October, Wednesday

    Time Temperature Precipitation Wind Pressure Humidity
    00:00 +5°C° 0 mm 5 mps 735 mmHg 78%
    01:00 +5°C° 0.1 mm 5 mps 734 mmHg 79%
    02:00 +5°C° 0.1 mm 5 mps 734 mmHg 80%
    03:00 +5°C° 0.1 mm 5 mps 733 mmHg 80%
    04:00 +5°C° 0.3 mm 5 mps 732 mmHg 81%
    05:00 +5°C° 0.3 mm 5 mps 732 mmHg 81%
    06:00 +5°C° 0.3 mm 5 mps 731 mmHg 81%
    07:00 +5°C° 0.3 mm 5 mps 731 mmHg 80%
    08:00 +4°C° 0.3 mm 6 mps 730 mmHg 78%
    09:00 +5°C° 0.3 mm 6 mps 730 mmHg 77%
    10:00 +5°C° 0.1 mm 6 mps 729 mmHg 76%
    11:00 +5°C° 0.1 mm 6 mps 729 mmHg 75%
    12:00 +6°C° 0.1 mm 7 mps 728 mmHg 74%
    13:00 +5°C° 0.6 mm 6 mps 728 mmHg 77%
    14:00 +6°C° 0.6 mm 5 mps 727 mmHg 81%
    15:00 +6°C° 0.6 mm 5 mps 727 mmHg 84%
    16:00 +6°C° 0.3 mm 4 mps 726 mmHg 86%
    17:00 +7°C° 0.3 mm 3 mps 726 mmHg 89%
    18:00 +7°C° 0.3 mm 3 mps 725 mmHg 91%
    19:00 +7°C° 0.3 mm 3 mps 725 mmHg 91%
    20:00 +7°C° 0.3 mm 3 mps 725 mmHg 92%
    21:00 +7°C° 0.3 mm 3 mps 725 mmHg 92%
    22:00 +5°C° 0 mm 4 mps 725 mmHg 92%
    23:00 +5°C° 0 mm 4 mps 726 mmHg 92%

    Tomorrow, 25 October, Thursday

    Time Temperature Precipitation Wind Pressure Humidity
    00:00 +5°C° 0 mm 5 mps 726 mmHg 91%
    01:00 +5°C° 0 mm 4 mps 726 mmHg 92%
    02:00 +4°C° 0 mm 4 mps 726 mmHg 93%
    03:00 +4°C° 0 mm 3 mps 726 mmHg 94%
    04:00 +4°C° 0 mm 3 mps 726 mmHg 95%
    05:00 +5°C° 0 mm 2 mps 726 mmHg 95%
    06:00 +5°C° 0 mm 2 mps 725 mmHg 96%
    07:00 +5°C° 0.1 mm 2 mps 725 mmHg 95%
    08:00 +5°C° 0.1 mm 2 mps 725 mmHg 93%
    09:00 +6°C° 0.1 mm 1 mps 725 mmHg 92%
    10:00 +6°C° 0.3 mm 2 mps 725 mmHg 89%
    11:00 +6°C° 0.3 mm 2 mps 725 mmHg 87%
    12:00 +6°C° 0.3 mm 2 mps 725 mmHg 84%
    13:00 +6°C° 0.3 mm 2 mps 725 mmHg 83%
    14:00 +5°C° 0.3 mm 3 mps 724 mmHg 82%
    15:00 +5°C° 0.3 mm 3 mps 724 mmHg 81%
    16:00 +5°C° 0.2 mm 3 mps 724 mmHg 83%
    17:00 +5°C° 0.2 mm 4 mps 725 mmHg 84%
    18:00 +4°C° 0.2 mm 4 mps 725 mmHg 86%
    19:00 +3°C° 0.2 mm 5 mps 726 mmHg 85%
    20:00 +3°C° 0.2 mm 6 mps 726 mmHg 83%
    21:00 +3°C° 0.2 mm 7 mps 727 mmHg 82%
    22:00 +2°C° 0.2 mm 7 mps 727 mmHg 81%
    23:00 +2°C° 0.2 mm 7 mps 728 mmHg 80%

    Day after tomorrow, 26 October, Friday

    Time Temperature Precipitation Wind Pressure Humidity
    00:00 0°C° 0.2 mm 7 mps 729 mmHg 79%
    01:00 +1°C° 0.1 mm 6 mps 729 mmHg 78%
    02:00 +1°C° 0.1 mm 6 mps 730 mmHg 78%
    03:00 -1°C° 0.1 mm 6 mps 731 mmHg 77%
    04:00 0°C° 0 mm 5 mps 731 mmHg 78%
    05:00 -1°C° 0 mm 5 mps 732 mmHg 79%
    06:00 -1°C° 0 mm 4 mps 732 mmHg 80%
    07:00 -1°C° 0 mm 4 mps 733 mmHg 80%
    08:00 0°C° 0 mm 5 mps 734 mmHg 79%
    09:00 0°C° 0 mm 5 mps 734 mmHg 79%
    10:00 +1°C° 0 mm 5 mps 735 mmHg 75%
    11:00 +2°C° 0 mm 6 mps 735 mmHg 71%
    12:00 +3°C° 0 mm 6 mps 735 mmHg 67%
    13:00 +3°C° 0 mm 6 mps 735 mmHg 66%
    14:00 +3°C° 0 mm 6 mps 736 mmHg 65%
    15:00 +3°C° 0 mm 6 mps 736 mmHg 63%
    16:00 +3°C° 0 mm 5 mps 736 mmHg 67%
    17:00 +2°C° 0 mm 5 mps 736 mmHg 71%
    18:00 +1°C° 0 mm 4 mps 736 mmHg 74%
    19:00 +1°C° 0.1 mm 5 mps 737 mmHg 76%
    20:00 +2°C° 0.1 mm 5 mps 737 mmHg 78%
    21:00 +2°C° 0.1 mm 5 mps 737 mmHg 80%
    22:00 +1°C° 0 mm 5 mps 738 mmHg 83%
    23:00 +1°C° 0 mm 4 mps 738 mmHg 87%

    27 October, Saturday

    Time Temperature Precipitation Wind Pressure Humidity
    00:00 0°C° 0 mm 4 mps 738 mmHg 90%
    01:00 0°C° 0 mm 4 mps 739 mmHg 90%
    02:00 0°C° 0 mm 4 mps 739 mmHg 90%
    03:00 -1°C° 0 mm 4 mps 740 mmHg 91%
    04:00 -1°C° 0 mm 4 mps 740 mmHg 91%
    05:00 -1°C° 0 mm 4 mps 740 mmHg 92%
    06:00 -1°C° 0 mm 4 mps 740 mmHg 92%
    07:00 0°C° 0 mm 5 mps 740 mmHg 89%
    08:00 0°C° 0 mm 5 mps 740 mmHg 86%
    09:00 +1°C° 0 mm 6 mps 740 mmHg 82%
    10:00 +2°C° 0.3 mm 7 mps 739 mmHg 80%
    11:00 +3°C° 0.3 mm 7 mps 739 mmHg 78%
    12:00 +4°C° 0.3 mm 8 mps 738 mmHg 76%
    13:00 +3°C° 0.8 mm 9 mps 737 mmHg 77%
    14:00 +3°C° 0.8 mm 9 mps 736 mmHg 78%
    15:00 +5°C° 0.8 mm 10 mps 736 mmHg 79%
    16:00 +5°C° 1 mm 9 mps 735 mmHg 80%
    17:00 +6°C° 1 mm 9 mps 735 mmHg 82%
    18:00 +6°C° 1 mm 9 mps 734 mmHg 83%
    19:00 +5°C° 0.1 mm 9 mps 735 mmHg 80%
    20:00 +5°C° 0.1 mm 8 mps 735 mmHg 77%
    21:00 +4°C° 0.1 mm 7 mps 735 mmHg 74%
    22:00 +4°C° 0 mm 8 mps 736 mmHg 75%
    23:00 +2°C° 0 mm 8 mps 736 mmHg 75%

    28 October, Sunday

    Time Temperature Precipitation Wind Pressure Humidity
    00:00 +2°C° 0 mm 9 mps 737 mmHg 76%
    01:00 +1°C° 0 mm 9 mps 737 mmHg 75%
    02:00 +1°C° 0 mm 9 mps 738 mmHg 75%
    03:00 0°C° 0 mm 9 mps 739 mmHg 74%
    04:00 0°C° 0 mm 8 mps 740 mmHg 75%
    05:00 -1°C° 0 mm 8 mps 741 mmHg 76%
    06:00 -1°C° 0 mm 8 mps 742 mmHg 76%
    07:00 -1°C° 0 mm 8 mps 743 mmHg 76%
    08:00 -1°C° 0 mm 8 mps 744 mmHg 76%
    09:00 -1°C° 0 mm 8 mps 745 mmHg 75%
    10:00 -1°C° 0 mm 7 mps 746 mmHg 73%
    11:00 0°C° 0 mm 7 mps 747 mmHg 71%
    12:00 +2°C° 0 mm 6 mps 748 mmHg 68%
    13:00 +2°C° 0 mm 6 mps 748 mmHg 68%
    14:00 +2°C° 0 mm 5 mps 749 mmHg 67%
    15:00 +2°C° 0 mm 5 mps 750 mmHg 66%
    16:00 +1°C° 0 mm 4 mps 750 mmHg 71%
    17:00 +2°C° 0 mm 3 mps 751 mmHg 75%
    18:00 +2°C° 0 mm 2 mps 752 mmHg 80%
    19:00 +1°C° 0 mm 2 mps 752 mmHg 81%
    20:00 +1°C° 0 mm 2 mps 753 mmHg 83%
    21:00 +1°C° 0 mm 2 mps 753 mmHg 85%
    22:00 -1°C° 0 mm 2 mps 754 mmHg 86%
    23:00 -1°C° 0 mm 2 mps 754 mmHg 87%

    29 October, Monday

    Time Temperature Precipitation Wind Pressure Humidity
    00:00 +1°C° 0 mm 1 mps 755 mmHg 87%
    01:00 +1°C° 0 mm 1 mps 755 mmHg 86%
    02:00 +1°C° 0 mm 1 mps 755 mmHg 84%
    03:00 +1°C° 0 mm 1 mps 756 mmHg 83%
    04:00 +1°C° 0 mm 1 mps 756 mmHg 81%
    05:00 +2°C° 0 mm 1 mps 756 mmHg 80%
    06:00 +2°C° 0 mm 1 mps 756 mmHg 79%
    07:00 +2°C° 0 mm 1 mps 756 mmHg 77%
    08:00 +2°C° 0 mm 1 mps 757 mmHg 76%
    09:00 +2°C° 0 mm 1 mps 757 mmHg 75%
    10:00 +3°C° 0.1 mm 1 mps 757 mmHg 75%
    11:00 +2°C° 0.1 mm 2 mps 757 mmHg 75%
    12:00 +2°C° 0.1 mm 2 mps 757 mmHg 75%
    13:00 +2°C° 0.2 mm 2 mps 757 mmHg 77%
    14:00 +1°C° 0.2 mm 3 mps 756 mmHg 79%
    15:00 +1°C° 0.2 mm 3 mps 756 mmHg 81%
    16:00 0°C° 0.3 mm 4 mps 756 mmHg 83%
    17:00 -1°C° 0.3 mm 4 mps 756 mmHg 86%
    18:00 -1°C° 0.3 mm 5 mps 756 mmHg 88%
    19:00 -1°C° 0.2 mm 5 mps 755 mmHg 89%
    20:00 -1°C° 0.2 mm 5 mps 755 mmHg 89%
    21:00 -2°C° 0.2 mm 6 mps 755 mmHg 89%
    22:00 -2°C° 0.1 mm 6 mps 755 mmHg 90%
    23:00 -1°C° 0.1 mm 5 mps 754 mmHg 91%

    30 October, Tuesday

    Time Temperature Precipitation Wind Pressure Humidity
    00:00 -1°C° 0.1 mm 5 mps 754 mmHg 91%
    01:00 -1°C° 0.1 mm 5 mps 754 mmHg 92%
    02:00 0°C° 0.1 mm 5 mps 753 mmHg 92%
    03:00 0°C° 0.1 mm 5 mps 753 mmHg 93%
    04:00 0°C° 0.1 mm 5 mps 753 mmHg 93%
    05:00 0°C° 0.1 mm 5 mps 753 mmHg 94%
    06:00 0°C° 0.1 mm 5 mps 753 mmHg 94%
    07:00 0°C° 0 mm 5 mps 753 mmHg 94%
    08:00 0°C° 0 mm 5 mps 753 mmHg 94%
    09:00 -1°C° 0 mm 6 mps 753 mmHg 93%
    10:00 +1°C° 0 mm 6 mps 753 mmHg 93%
    11:00 +1°C° 0 mm 6 mps 753 mmHg 92%
    12:00 +1°C° 0 mm 6 mps 753 mmHg 91%
    13:00 +2°C° 0.1 mm 6 mps 753 mmHg 90%
    14:00 +2°C° 0.1 mm 6 mps 753 mmHg 90%
    15:00 +2°C° 0.1 mm 6 mps 753 mmHg 90%
    16:00 +2°C° 0 mm 6 mps 754 mmHg 90%
    17:00 +1°C° 0 mm 6 mps 754 mmHg 90%
    18:00 +1°C° 0 mm 6 mps 754 mmHg 90%
    19:00 +1°C° 0 mm 6 mps 755 mmHg 89%
    20:00 +1°C° 0 mm 6 mps 755 mmHg 89%
    21:00 0°C° 0 mm 7 mps 755 mmHg 89%
    22:00 -1°C° 0 mm 7 mps 756 mmHg 89%
    23:00 -1°C° 0 mm 7 mps 756 mmHg 89%
    Show more